Location: Tel Aviv
(32.0670°N, 34.7670°E)
Time: 20:34:13
(UTC+03:00)

Vanguard 2 Rocket - Pass Details

Date: 01 February 2022
Orbit: 553 x 3323 km, 32.9° (Epoch: 24 May)

Event Time Altitude Azimuth Distance (km) Brightness Sun altitude
Exits shadow 00:56:02 29° 82° (E) 4,472 10.3 -69.6°
Drops below altitude 10° 01:03:26 10° 83° (E) 6,162 11.3 -68.4°
Sets 01:08:34 0° 84° (E) 7,294 11.8 -67.6°
